FW0663 Weather Reports


time (UTC)temp
F
wind
direction
speed
knots
gust
knots
rain 1hr
in
rain 24hr
in
rain mn
in
humidity
%
barometer
mb
20260505223043 78 303 3.5 9.6 0.00 0.00 0.00 27 1010.7
20260505221549 80 325 3.5 8.7 0.00 0.00 0.00 26 1010.8
20260505220044 80 321 2.6 10.4 0.00 0.00 0.00 26 1010.8
20260505214542 80 318 6.1 11.3 0.00 0.00 0.00 27 1011.0
20260505213040 80 343 1.7 9.6 0.00 0.00 0.00 28 1011.0
20260505211541 79 329 3.5 12.2 0.00 0.00 0.00 26 1011.0
20260505210038 79 321 3.5 12.2 0.00 0.00 0.00 28 1010.9
20260505204545 78 175 1.7 8.7 0.00 0.00 0.00 33 1010.9
20260505203037 77 340 3.5 9.6 0.00 0.00 0.00 36 1011.0
20260505201533 77 330 3.5 9.6 0.00 0.00 0.00 36 1011.2
20260505200031 76 290 4.3 11.3 0.00 0.00 0.00 39 1011.3
20260505194534 76 342 2.6 7.0 0.00 0.00 0.00 39 1011.5
20260505193027 74 142 1.7 8.7 0.00 0.00 0.00 39 1011.7
20260505191525 74 346 0.9 7.0 0.00 0.00 0.00 39 1011.8
20260505190022 73 281 2.6 7.0 0.00 0.00 0.00 41 1012.0
20260505184524 71 333 1.7 6.1 0.00 0.00 0.00 43 1012.1
20260505183019 71 275 2.6 6.1 0.00 0.00 0.00 44 1012.1
20260505181515 70 284 2.6 8.7 0.00 0.00 0.00 44 1012.2
20260505180013 69 281 0.9 5.2 0.00 0.00 0.00 45 1012.2
20260505174510 68 254 2.6 5.2 0.00 0.00 0.00 46 1012.2
20260505173008 67 317 0.9 4.3 0.00 0.00 0.00 47 1012.4
20260505171504 66 289 0.9 5.2 0.00 0.00 0.00 49 1012.4
20260505170100 64 16 0.9 3.5 0.00 0.00 0.00 51 1012.4
20260505164604 63 268 0.9 2.6 0.00 0.00 0.00 53 1012.5
20260505163057 62 243 0.9 5.2 0.00 0.00 0.00 54 1012.6
20260505161555 61 213 0.0 1.7 0.00 0.00 0.00 55 1012.7
20260505153042 56 81 0.9 2.6 0.00 0.00 0.00 60 1012.9
20260505151539 55 92 0.9 2.6 0.00 0.00 0.00 61 1012.9
20260505124538 40 109 0.9 1.7 0.00 0.00 0.00 79 1011.8
20260505123019 42 97 0.9 2.6 0.00 0.00 0.00 75 1011.8
20260505121529 43 105 0.0 1.7 0.00 0.00 0.00 75 1011.6
20260505120016 43 118 0.0 1.7 0.00 0.00 0.00 75 1011.4
20260505114515 43 113 0.9 2.6 0.00 0.00 0.00 75 1011.4
20260505113014 43 111 0.9 2.6 0.00 0.00 0.00 74 1011.3
20260505111512 44 114 0.9 2.6 0.00 0.00 0.00 72 1011.3
20260505101508 42 107 0.9 1.7 0.00 0.00 0.00 75 1011.0
20260505100016 43 100 0.9 3.5 0.00 0.00 0.00 73 1010.9
20260505094501 46 96 0.9 1.7 0.00 0.00 0.00 68 1010.9
20260505093100 46 108 0.0 1.7 0.00 0.00 0.00 67 1010.9
20260505091617 47 131 0.9 1.7 0.00 0.00 0.00 67 1010.8
20260505090101 47 109 0.0 2.6 0.00 0.00 0.00 67 1010.8
20260505084555 47 102 0.0 2.6 0.00 0.00 0.00 65 1010.8
20260505083054 47 102 0.9 2.6 0.00 0.00 0.00 65 1010.8
20260505081550 48 92 0.9 2.6 0.00 0.00 0.00 63 1010.7
20260505080052 49 105 0.9 2.6 0.00 0.00 0.00 60 1010.7
20260505074543 51 107 0.0 2.6 0.00 0.00 0.00 58 1010.7
20260505073053 52 308 0.0 1.7 0.00 0.00 0.00 52 1010.6
20260505071542 53 311 0.0 1.7 0.00 0.00 0.00 50 1010.6
20260505070037 55 238 0.0 1.7 0.00 0.00 0.00 47 1010.5
20260505064534 56 338 0.0 1.7 0.00 0.00 0.00 46 1010.3
20260505063045 56 182 0.0 0.0 0.00 0.00 0.00 44 1010.3
20260505061538 59 9 0.0 2.6 0.00 0.00 0.00 42 1010.3
20260505060033 58 246 0.0 3.5 0.00 0.00 0.00 43 1010.3
20260505054543 59 211 0.0 1.7 0.00 0.00 0.00 43 1010.2
20260505053037 61 339 0.0 1.7 0.00 0.00 0.00 40 1010.1
20260505051539 62 171 0.0 3.5 0.00 0.00 0.00 38 1010.1
20260505041544 67 323 3.5 11.3 0.00 0.00 0.00 33 1009.1
20260505040030 67 9 1.7 11.3 0.00 0.00 0.00 34 1008.9
20260505034530 68 315 6.1 10.4 0.00 0.00 0.00 32 1008.7
20260505033030 69 301 4.3 11.3 0.00 0.00 0.00 31 1008.4
20260505031537 69 335 4.3 10.4 0.00 0.00 0.00 31 1008.3
20260505030032 71 331 4.3 10.4 0.00 0.00 0.00 31 1008.0
20260505024529 72 315 4.3 9.6 0.00 0.00 0.00 30 1007.7
20260505023030 73 355 5.2 11.3 0.00 0.00 0.00 28 1007.5
20260505021529 74 344 7.0 13.0 0.00 0.00 0.00 28 1007.2
20260505020038 77 333 5.2 10.4 0.00 0.00 0.00 24 1007.1
20260505014527 77 298 3.5 9.6 0.00 0.00 0.00 24 1007.1
20260505013026 78 9 3.5 7.8 0.00 0.00 0.00 24 1007.1
20260505011526 77 317 4.3 9.6 0.00 0.00 0.00 24 1007.2
20260505010025 79 351 3.5 10.4 0.00 0.00 0.00 25 1007.3
20260505004524 77 334 4.3 9.6 0.00 0.00 0.00 25 1007.2
20260505003028 78 334 4.3 11.3 0.00 0.00 0.00 27 1007.3
20260505001523 79 355 5.2 12.2 0.00 0.00 0.00 25 1007.3
20260505000022 80 300 4.3 8.7 0.00 0.00 0.00 23 1007.3
20260504234521 80 348 5.2 12.2 0.00 0.00 0.00 23 1007.4
20260504233022 80 328 7.8 13.0 0.00 0.00 0.00 22 1007.3
20260504231519 80 329 5.2 13.0 0.00 0.00 0.00 22 1007.5
20260504230017 81 321 7.0 12.2 0.00 0.00 0.00 22 1007.7
20260504224522 80 296 6.1 12.2 0.00 0.00 0.00 21 1008.0